Location: Titusville
(28.6119°N, 80.8078°W)
Time: 00:35:31
(UTC-04:00)

N. Korean satellite - Visible Passes

Search period start: 21 September 2018 00:00
Search period end: 01 October 2018 00:00
Orbit: 458 x 511 km, 97.2° (Epoch: 20 September)

Date Brightness Start Highest point End Pass type
(mag) Time Alt. Az. Time Alt. Az. Time Alt. Az.
22 Sep 10.0 20:04:49 10° SW 20:06:30 13° W 20:08:13 10° WNW visible
23 Sep 8.9 19:39:01 10° SSW 19:42:04 29° W 19:45:11 10° NW visible
26 Sep 9.9 20:00:29 10° SW 20:02:32 15° W 20:04:38 10° WNW visible
27 Sep 8.6 19:34:55 10° SSW 19:38:07 33° W 19:41:22 10° NNW visible
29 Sep 10.3 06:45:04 10° ENE 06:46:57 13° E 06:48:50 10° SE visible
30 Sep 9.8 19:56:10 10° SW 19:58:33 17° W 20:00:58 10° NW visible
